Location: Milton Keynes
(52.0316°N, 0.7531°W)
Time: 23:44:07
(UTC+00:00)

N. Korean satellite - Pass Details

Date: 25 September 2020
Orbit: 452 x 505 km, 97.2° (Epoch: 29 October)

Event Time Altitude Azimuth Distance (km) Brightness Sun altitude
Rises 06:16:29 0° 19° (NNE) 2,609 10.6 -6.7°
Reaches altitude 10° 06:18:42 10° 27° (NNE) 1,712 9.8 -6.3°
Maximum altitude 06:22:10 39° 97° (E) 761 8.3 -5.8°
Drops below altitude 10° 06:25:34 10° 168° (SSE) 1,672 9.4 -5.3°
Sets 06:27:42 0° 176° (S) 2,537 10.2 -5.0°
